Back to catalog

SL-8 R/B

AlivePO
NORAD 10537·ROCKET BODY·🇷🇺 Russia

Launched Dec 23, 1977 from Plesetsk Cosmodrome

Loading…

Next Passes (next 24 hours)

TLE

FreshSource: Space-Track

Epoch: Sep 14, 2026, 01:58 UTC

1 10537U 77122B   26257.08258843  .00000024  00000-0  89570-5 0  9995
2 10537  82.9343 131.6863 0019171 323.3885 206.1204 13.75554451444889

Track SL-8 R/B in real time with AllMySat

Download on the App Store